RH
6 2 4 5 7 11 24 45 56 63 79 83 74 86 88 51 81 71 64 45 93 86 83 64 64 75 87 81 76 67 66 68 64 58 51 44 36 36 53 66 60 55 70 75 68 67 55 42 27
4 3 5 5 11 40 70 89 65 79 76 75 48 63 64 47 79 66 65 80 87 87 96 96 90 84 92 88 79 72 74 73 69 60 41 34 32 33 34 42 56 63 80 80 71 72 69 52 36
3 5 5 7 37 48 80 70 79 74 42 24 22 26 43 49 89 99 93 86 96 93 100 97 96 92 83 81 86 83 80 78 74 62 40 34 38 35 37 37 43 71 81 85 76 83 66 51 39
5 6 9 18 61 71 74 72 69 43 30 22 45 65 90 91 47 94 99 96 96 96 77 95 96 91 96 95 99 90 86 84 79 64 47 63 62 45 41 46 53 84 84 93 88 82 69 58 41
6 7 38 88 86 70 70 54 21 14 16 61 90 71 84 80 46 50 66 85 95 97 97 89 82 88 98 98 98 99 95 88 77 70 58 84 72 56 55 54 60 93 99 94 92 74 66 60 37
6 12 90 90 82 87 60 25 23 13 14 20 74 62 65 67 70 54 23 70 60 91 96 93 92 96 92 95 93 84 72 69 71 73 95 88 86 65 73 73 92 92 90 91 79 70 68 40 17
6 34 81 89 78 85 79 54 55 100 84 44 41 93 94 56 68 52 44 33 70 87 97 93 96 88 91 89 88 90 84 75 62 90 83 92 84 82 87 85 97 96 95 87 78 59 32 18 36
8 33 93 96 99 99 75 65 94 28 39 33 95 96 95 62 76 72 66 72 90 90 95 91 97 90 95 92 82 72 70 63 68 94 80 82 96 96 92 91 94 93 91 86 44 13 23 37 32
10 48 95 96 99 53 85 54 18 55 62 77 68 85 68 64 64 57 72 74 86 96 94 95 95 95 97 83 80 89 86 90 73 88 84 91 96 93 94 95 97 96 95 66 20 38 40 35 30
20 62 96 99 65 40 50 32 64 80 58 71 93 78 59 34 54 62 62 72 86 95 97 96 96 96 95 95 95 94 96 95 91 87 96 96 96 96 96 96 96 96 95 41 47 43 34 23 17
21 78 98 96 20 18 32 48 54 59 69 76 93 86 77 36 47 57 64 68 70 66 77 93 96 86 89 89 88 96 78 91 96 95 95 96 97 96 96 97 96 95 70 55 45 34 32 24 11
14 54 65 30 18 14 26 67 68 54 58 78 74 91 71 50 47 61 62 52 52 65 64 82 62 69 84 93 89 78 78 97 95 94 92 96 97 95 97 97 96 94 80 55 42 34 26 12 11
21 21 39 49 70 66 39 75 79 70 45 70 77 72 57 46 56 42 48 55 64 60 55 49 62 75 73 76 99 70 83 96 76 74 99 97 94 98 98 97 95 83 71 57 38 25 14 11 10
48 16 29 72 95 68 58 86 61 64 65 76 43 97 74 50 62 64 59 57 57 64 51 46 70 66 76 93 69 77 97 95 96 97 97 96 97 98 97 92 78 68 55 38 21 16 13 12 12
10 15 34 83 56 42 35 72 74 49 52 58 35 38 71 55 69 65 55 55 76 59 55 61 65 71 97 93 98 97 97 96 97 96 95 96 97 95 94 76 66 58 37 21 18 15 13 13 13
10 25 61 89 98 89 82 71 82 50 52 55 50 31 39 47 54 59 65 79 93 60 72 75 88 98 97 97 95 91 95 94 88 93 97 92 73 73 52 29 26 25 20 20 17 15 14 13 14
26 48 88 86 88 65 56 88 92 73 59 52 48 42 18 24 28 48 76 83 82 75 66 73 75 88 64 66 46 50 63 45 60 58 54 55 55 50 33 21 18 20 21 18 17 15 14 12 34
100 77 100 97 95 99 73 84 95 82 68 50 37 18 11 15 31 16 35 70 56 43 34 30 40 45 44 33 20 29 35 49 58 68 77 84 69 61 31 18 19 21 19 18 16 15 14 32 47
95 90 95 99 92 88 64 94 70 92 70 62 44 59 16 11 15 39 23 21 29 30 26 22 21 21 35 52 28 14 20 29 41 72 82 82 91 56 25 20 19 19 18 17 15 18 30 40 47
49 82 96 93 64 65 58 100 90 96 66 61 41 38 27 12 8 15 15 14 23 23 20 24 26 23 21 24 22 22 19 18 16 21 48 83 97 42 19 20 21 20 19 19 30 35 37 44 60
14 16 81 100 100 76 52 54 91 100 54 54 29 24 35 32 12 10 10 11 12 16 15 11 10 11 10 11 11 12 17 20 21 29 30 63 93 42 25 22 23 18 18 22 28 46 56 73 78
23 41 82 96 83 65 70 74 95 100 81 52 36 28 24 28 29 17 17 12 10 10 9 9 9 11 12 14 14 16 21 28 35 40 28 37 36 52 54 56 54 35 26 30 44 71 85 92 79
60 80 79 91 100 86 83 88 100 89 80 66 46 44 41 43 34 39 19 17 16 15 14 15 15 15 16 15 14 28 43 31 32 35 44 48 29 24 43 31 67 72 68 52 54 97 99 98 94
81 53 91 96 58 66 58 100 99 65 74 100 96 91 70 67 59 49 54 64 64 47 24 18 19 28 28 44 32 35 41 46 39 56 66 66 73 89 96 96 91 99 99 98 98 99 94 99 87
71 86 79 89 97 53 91 99 77 65 93 89 98 88 92 59 46 55 52 57 66 71 82 70 58 57 53 52 54 66 87 64 51 64 80 64 90 85 83 90 97 98 97 99 99 92 100 100 75
57 42 66 96 94 96 90 77 96 62 55 97 66 51 44 44 40 37 36 27 41 47 60 58 51 43 41 47 50 45 97 52 72 65 74 86 96 48 54 90 90 94 96 94 67 56 65 71 80
98 44 68 86 98 92 97 92 99 82 59 68 50 48 49 55 44 36 91 37 37 50 52 64 60 44 41 38 43 42 70 81 88 98 95 48 68 54 48 74 83 60 39 43 31 36 37 27 50
24 94 95 76 98 85 70 95 99 84 99 70 42 43 41 39 36 33 36 39 64 85 70 66 55 36 43 35 23 34 30 45 94 97 80 100 87 56 72 76 70 57 41 26 12 12 14 18 34
48 41 70 100 96 77 98 86 85 75 100 91 57 37 35 35 32 26 32 52 66 73 97 97 53 90 62 41 28 71 61 90 93 48 76 77 61 64 65 53 53 18 11 10 14 19 21 27 35
75 66 41 79 94 97 90 61 74 71 99 92 55 53 42 37 35 38 25 43 52 70 87 82 64 52 66 46 53 97 84 87 69 100 48 38 69 60 51 38 15 9 10 18 23 26 32 31 65
Wind_Speed
51 50 39 34 20 11 8 16 4 11 23 29 40 38 20 33 29 56 60 68 9 32 35 39 38 37 31 29 28 29 29 30 29 25 25 22 19 18 17 19 17 15 15 14 12 12 11 12 10
50 40 33 24 7 3 9 19 14 27 23 36 31 32 40 47 29 47 50 51 45 35 39 39 37 36 31 31 30 30 31 30 28 24 20 18 18 19 19 21 20 16 13 13 12 12 13 11 12
44 31 25 9 3 3 14 18 22 24 29 37 35 34 43 46 34 26 27 43 41 33 35 35 36 33 32 32 32 32 31 29 26 24 19 23 21 23 21 23 19 16 14 14 14 13 12 13 14
34 22 11 5 8 6 13 19 21 25 27 29 34 33 34 29 33 31 33 30 27 29 34 38 42 37 33 32 30 31 30 27 25 20 23 25 25 26 24 22 18 16 14 16 15 13 13 15 15
25 15 19 15 14 15 21 26 31 26 26 21 15 36 21 26 36 38 38 29 32 20 31 32 29 35 31 31 28 27 27 26 27 24 25 22 24 23 23 19 17 15 15 16 16 14 14 13 11
18 6 12 12 10 19 29 18 25 22 25 24 32 28 25 14 27 36 39 38 40 36 30 33 29 25 20 17 21 23 25 23 23 24 30 22 24 24 22 16 15 14 14 13 13 15 14 9 6
12 5 7 7 15 20 32 17 10 17 19 27 28 28 20 28 18 21 29 38 46 23 35 34 24 16 13 16 21 20 22 24 23 30 26 30 30 27 23 20 19 13 11 11 12 11 9 6 5
4 10 7 11 8 29 25 19 14 19 22 25 16 11 11 14 13 18 20 17 20 6 12 28 20 18 19 22 22 25 25 25 26 33 30 30 31 31 28 23 22 20 14 12 11 9 7 6 5
4 11 8 15 13 23 18 18 20 30 27 22 20 17 17 17 16 19 19 15 18 17 10 10 11 19 21 21 23 22 35 35 32 32 31 33 26 24 27 29 27 21 16 13 10 8 6 4 6
6 8 6 12 29 20 14 10 20 24 23 31 27 19 20 20 20 19 19 20 21 19 19 14 13 16 16 22 25 21 29 30 38 36 41 35 37 28 34 31 29 20 17 14 9 6 5 4 6
2 4 13 13 16 14 12 13 17 22 25 25 22 24 21 21 21 20 21 22 21 22 20 22 17 19 21 18 24 27 32 32 39 19 23 23 28 36 36 30 25 20 16 12 8 8 6 7 7
2 7 17 15 7 7 13 12 19 18 20 19 20 8 17 18 21 21 19 21 22 22 23 25 27 28 26 19 23 27 30 25 25 30 26 34 41 37 33 26 23 22 14 11 11 9 8 9 10
5 6 8 6 7 10 10 13 21 12 13 17 13 8 15 16 16 18 19 19 22 24 25 26 24 23 21 19 24 27 24 28 32 28 26 28 26 22 22 26 18 15 13 11 10 11 10 10 12
7 7 6 5 10 10 15 12 12 10 11 15 17 10 17 11 14 18 21 23 24 24 25 25 23 21 17 20 26 27 24 26 21 25 24 16 16 19 22 17 14 13 11 11 12 11 11 12 15
6 3 8 10 14 18 14 14 13 20 15 12 11 12 10 10 12 18 25 26 19 19 21 20 19 20 26 26 31 27 23 28 26 13 8 16 21 21 13 11 11 10 11 12 11 12 14 17 18
4 4 2 14 20 19 14 17 19 20 23 14 10 9 10 7 9 9 11 16 20 19 20 20 21 25 20 14 10 11 5 8 12 13 18 19 15 12 10 10 10 11 12 11 12 14 18 20 22
6 6 13 22 9 15 14 14 13 10 16 16 9 7 4 8 8 9 6 4 11 12 16 17 13 12 14 12 12 13 13 13 15 16 13 10 9 8 7 10 12 12 12 13 15 18 22 24 25
6 10 11 24 12 22 20 23 13 14 12 12 12 12 8 7 8 11 11 13 12 11 9 10 7 6 8 7 9 9 7 9 10 11 9 7 7 7 10 13 14 12 14 16 20 23 26 28 33
13 15 11 21 18 14 6 23 20 21 12 11 8 9 7 5 2 5 6 7 8 5 4 3 3 2 2 5 5 5 4 2 1 1 4 9 11 10 10 12 13 16 19 21 25 28 32 35 36
19 20 12 19 22 23 10 16 26 23 23 11 13 11 9 5 2 1 2 0 1 0 1 2 3 4 2 2 4 5 4 5 6 6 11 13 10 13 12 15 19 20 21 24 28 31 35 38 38
11 22 18 20 20 17 13 8 24 26 19 16 12 11 10 8 3 1 1 2 2 2 1 1 2 4 5 5 5 5 5 6 7 7 10 13 15 15 18 21 21 23 27 29 31 34 35 34 36
8 11 21 19 27 15 14 17 18 13 22 14 18 14 12 9 7 3 2 2 3 3 4 5 7 7 8 10 10 9 8 9 10 10 12 13 15 17 20 25 26 30 32 37 35 36 36 36 41
8 18 20 17 18 19 17 8 10 14 19 18 10 10 7 8 7 5 4 6 8 8 9 9 10 11 11 12 13 12 12 12 13 14 16 16 19 21 25 26 30 38 40 39 42 42 32 38 42
15 14 18 21 17 24 14 16 17 16 17 20 20 19 3 7 9 8 8 11 8 10 13 13 14 15 14 14 14 14 15 13 12 13 15 16 18 24 27 25 32 34 39 38 44 42 35 41 44
22 19 13 13 13 13 10 19 12 19 22 21 15 31 11 9 11 11 12 10 11 12 13 12 13 14 15 15 16 21 15 18 16 16 16 18 22 24 28 32 35 40 39 35 33 33 38 40 43
21 20 16 21 22 19 27 21 15 19 19 13 14 21 24 19 17 18 18 18 16 17 14 13 14 16 17 17 18 17 19 27 24 19 20 27 20 26 31 35 35 31 29 30 34 38 41 44 47
24 21 12 20 28 29 18 9 15 20 23 23 21 22 20 22 26 26 23 26 25 22 19 16 17 19 20 20 21 21 22 24 40 30 21 27 26 29 33 32 35 36 36 37 40 41 43 44 47
28 21 21 23 30 32 21 16 14 22 20 23 21 20 23 25 22 25 26 27 26 24 25 21 20 23 23 24 23 24 20 21 28 14 23 27 31 34 34 37 38 38 39 41 43 44 46 49 50
26 30 30 22 29 30 23 17 25 30 15 21 21 21 20 19 21 19 23 22 24 29 27 29 38 21 28 27 29 27 26 29 30 28 29 33 34 35 38 39 39 40 42 43 45 48 50 51 55
34 27 28 35 28 33 34 26 22 25 25 25 22 23 24 18 18 19 21 26 28 27 30 33 33 28 30 30 33 31 28 28 33 30 33 36 36 39 42 41 43 43 44 46 48 50 53 56 54
Wind_Direction
324 324 320 318 302 282 13 359 305 229 234 234 230 243 223 248 216 222 226 228 308 179 210 221 224 227 226 232 237 243 249 250 252 253 255 257 262 258 254 255 256 267 267 275 274 262 262 260 261
328 324 325 323 281 76 332 246 246 229 243 235 240 229 239 246 226 233 247 249 251 206 210 216 218 221 225 229 234 240 244 248 250 253 259 261 264 262 258 255 259 261 270 267 261 265 267 269 266
329 329 331 317 317 1 298 283 225 212 234 249 243 254 241 245 244 231 234 246 255 209 219 217 213 216 219 229 231 235 239 245 251 257 263 261 258 262 258 254 257 255 264 262 256 265 268 270 267
330 340 345 18 2 250 262 291 265 249 260 250 262 249 242 242 248 252 244 242 231 225 224 228 236 223 207 219 225 233 241 249 254 266 258 266 263 259 256 252 252 249 270 270 261 271 272 275 260
334 345 43 1 326 297 259 245 255 266 269 264 248 268 253 242 239 242 246 256 252 198 208 224 219 217 203 209 223 239 251 257 260 262 259 272 265 256 256 253 247 253 279 269 269 269 266 263 256
335 19 49 332 329 254 280 256 253 271 280 255 242 246 252 241 242 252 258 261 245 242 215 211 216 221 218 224 244 251 252 253 253 256 269 263 272 257 256 251 248 256 268 262 258 261 249 231 245
336 66 80 311 266 269 281 236 297 278 273 251 259 252 243 237 244 252 260 257 264 255 208 197 206 215 219 231 234 240 239 245 251 251 264 257 266 255 251 245 256 264 262 250 255 222 216 223 258
18 96 77 275 298 302 309 319 298 271 264 277 280 282 276 237 249 250 249 257 226 258 210 204 207 227 224 234 236 240 242 245 246 260 253 261 259 257 260 257 261 262 243 235 212 217 209 238 259
104 68 24 283 247 264 265 295 270 268 266 267 256 262 257 253 250 256 256 261 263 261 261 253 243 210 220 249 239 244 265 246 252 266 262 289 255 262 264 261 256 241 215 193 203 210 219 238 274
169 113 254 284 262 265 295 296 316 291 290 275 262 250 253 241 247 249 250 250 261 269 273 265 253 265 253 234 251 265 263 290 254 266 276 272 265 269 253 260 259 223 176 183 199 205 223 226 260
166 177 262 240 298 268 286 317 319 302 320 287 287 250 243 242 239 242 245 250 253 262 271 275 271 273 260 269 265 263 281 291 251 272 261 263 269 281 266 254 232 183 174 186 205 211 222 251 264
295 203 250 268 316 296 291 313 309 305 327 324 312 235 239 248 243 239 247 252 257 263 263 268 276 276 272 250 267 264 269 259 273 287 284 269 283 279 252 243 194 158 173 197 206 218 229 249 277
277 255 232 239 328 301 301 330 315 321 326 338 335 247 244 245 255 247 238 246 256 259 260 263 268 267 270 255 255 272 276 265 282 282 262 269 273 255 229 221 159 168 188 200 214 224 238 264 287
267 264 237 321 320 337 343 333 349 7 356 358 2 312 252 265 256 255 253 250 261 267 260 264 273 263 249 237 258 258 257 268 263 264 257 260 233 200 180 155 175 185 191 200 213 234 260 279 297
240 242 217 310 303 308 326 323 358 9 359 355 7 1 346 275 278 277 272 271 271 273 268 270 259 266 254 243 250 251 234 240 252 234 215 205 177 159 159 181 198 202 203 205 230 258 276 288 305
195 206 326 276 273 278 292 299 335 351 9 5 343 20 355 341 295 264 260 271 269 274 278 268 263 242 232 197 176 154 155 177 135 135 156 152 147 168 183 201 193 197 209 227 250 271 283 298 309
120 357 291 295 301 299 297 294 283 355 0 356 341 6 33 6 13 28 25 177 90 83 72 76 74 88 96 109 112 99 122 123 125 145 153 148 176 188 204 201 199 213 233 252 269 281 291 298 304
276 242 228 287 286 292 313 313 322 354 10 353 351 348 27 32 18 55 78 94 88 75 76 76 94 134 115 123 104 112 126 127 146 153 157 184 206 223 214 208 217 233 255 269 281 287 291 295 299
223 245 222 274 284 283 298 296 308 306 19 339 348 4 348 40 31 49 73 107 126 141 151 137 169 208 80 21 5 18 12 4 221 147 257 236 218 252 229 230 244 252 264 278 286 290 291 296 297
233 221 197 277 285 276 298 291 313 306 333 332 325 331 328 342 38 288 196 297 357 78 33 21 20 13 35 9 356 349 328 310 299 268 261 273 275 260 237 235 248 256 271 282 286 292 294 296 296
261 224 216 235 247 274 268 272 294 296 320 327 321 333 331 313 304 239 265 274 236 242 164 339 22 17 7 358 346 330 324 316 303 281 265 255 258 252 248 251 258 269 273 277 284 289 292 298 303
255 192 228 227 241 243 252 253 237 252 287 311 320 330 335 345 307 304 317 294 302 319 319 335 342 350 349 342 341 328 318 303 295 294 278 268 260 259 261 268 271 274 277 283 283 286 288 306 306
195 226 229 248 238 230 254 261 279 262 261 301 320 299 315 335 320 299 321 319 314 310 308 311 310 314 323 318 312 316 318 306 293 285 282 280 275 276 281 282 276 274 277 279 281 279 294 300 309
224 240 238 238 246 222 235 246 231 253 237 251 282 289 233 320 306 305 313 308 304 298 296 300 305 308 311 312 310 306 301 302 288 280 281 288 288 287 287 289 295 288 287 285 290 290 297 297 302
227 232 242 256 233 215 239 250 253 257 255 235 243 279 216 306 308 302 294 302 279 293 286 286 299 308 307 307 305 313 292 301 287 269 268 284 286 295 298 305 312 303 291 288 298 298 290 296 299
246 241 238 229 236 233 234 221 231 260 253 225 266 292 292 294 286 296 297 292 280 277 274 282 298 304 308 307 299 302 301 293 284 268 282 272 284 296 307 309 306 317 308 302 299 297 296 295 293
231 241 253 223 254 260 260 211 231 234 265 274 270 266 266 268 286 295 291 290 287 279 270 275 284 291 296 296 289 290 297 288 304 264 269 287 292 298 303 310 311 306 303 300 298 298 298 292 294
224 218 240 239 238 251 251 255 262 264 221 247 254 260 260 268 273 279 281 279 275 280 284 275 273 280 287 292 287 286 289 297 301 272 283 288 293 299 302 304 304 303 302 301 301 301 301 301 299
233 223 223 226 236 247 247 231 232 243 210 230 255 263 270 273 268 280 274 268 268 275 280 272 286 290 287 287 285 280 284 282 285 289 286 290 295 297 298 300 300 299 299 301 302 302 303 302 299
249 245 228 237 226 236 242 228 245 258 228 244 248 265 274 285 286 277 270 264 263 262 263 268 275 279 280 277 278 275 276 280 282 274 287 290 295 297 299 300 300 301 301 301 301 302 302 304 300